Location: Unspecified
(42.7170°S, 0.0000°E)
Time: 03:43:28
(UTC+00:00)

N. Korean satellite - Pass Details

Date: 24 May 2019
Orbit: 455 x 510 km, 97.2° (Epoch: 19 June)

Event Time Altitude Azimuth Distance (km) Brightness Sun altitude
Rises 05:19:53 0° 10° (N) 2,472 10.4 -20.5°
Reaches altitude 10° 05:21:54 10° 8° (N) 1,610 9.4 -20.1°
Maximum altitude 05:25:21 76° 282° (WNW) 488 6.3 -19.5°
Enters shadow 05:26:04 53° 211° (SSW) 583 6.6 -19.4°
